ONEWEB-0023, 45136

Orbit data source: Space-Track

ONEWEB-0023, 45136 is a payload satellite owned by One Web (UK) in LEO that was launched on Thu, 06 Feb 2020 UTC via a SOYUZ-2-1B launch vehicle from the Tyuratam Missile And Space Complex (TTMTR). Payload-class satellites include a variety of spacecraft equipped with specific instruments for various scientific and technological missions. These include communications satellites like Starlink; space stations such as the ISS; scientific satellites like the Hubble; Earth observation satellites from companies like Planet Labs, Umbra, and HawkEye 360; GPS; miniature CubeSats for education and research; and military/defense satellites.

Loading next visibility...
Identifier
45136, 2020-008F
Orbit
LEO
Country
Flag of UKUK
Related business
Manufacturer
One Web
Mission
Operational Commercial Communications
Bus & Motor
ARROW, Unknown motor
Mass
148 kg wet, ~140 kg dry
Launch date (UTC)
2020-02-06 (6 years ago)
Launch vehicle
SOYUZ-2-1B
Launch site
Tyuratam Missile And Space Complex (TTMTR)
Object type
Payload
Rocket body
Debris
Shape & HBR
Trap Box + 2 Pan, 6.7 m
Radar Cross Section
3.464 m², Large (>1 m²)

Expand to show TLE details & history
Last TLE update: 14 hours ago

TLE from 14 hours ago
0 ONEWEB-0023
1 45136U 20008F   25287.73529205  .00000706  00000-0  19846-2 0  9999
2 45136  87.8752  85.2086 0001614  82.5060 277.6251 13.10375055275936
Epoch: 2025-10-14T17:38Z
TLE epoch observation values (Epoch: 2025-10-14T17:38:49.233Z)
Latitude
0.00003°
Longitude
156.98401°
Altitude
1,224.433 km
Speed
7.242 km/s
True Right ascension
05h 40m 50s
True Declination
0° 00' 00"
Sunlit
Object was in daylight at epoch
Visualization orbit readout
Latitude
Unknown
Longitude
Unknown
Altitude
Unknown
Speed
Unknown
Apparent Right ascension
Unknown
Apparent Declination
Unknown
Sunlit
N/A
Visualization observer readout
Local Sidereal Time
02:06:29
Azimuth
Unknown
Elevation
Unknown
Doppler factor
Unknown
Orbital elements
Apogee altitude
1,220.055 km
Perigee altitude
1,217.602 km
Semi-major axis
7,596.965 km
Eccentricity
0.00016
Inclination
87.8752°
RAAN
85.2086°
Arg. of periapsis
82.506°
True anomaly
277.60677°
Mean anomaly
277.6251°
Eccentric anomaly
277.61593°
Mean motion
3.2778 °/min
Orbital period
109.83 mins
BSTAR
0.0019846
Loading maneuver chart data...
Computing Atmospheric mass density...
Loading historical data...
Loading historical data...
Loading historical data...
Loading historical data...
Loading historical data...
Loading historical data...
Loading historical data...

Documentation

Showing up to 5 results
|